When you browse on this site, cookies collect data to enhance your experience and personalize the content and advertising you see.
Visit our Privacy Policy to learn more. By continuing to use the site, you agree to this use of cookies and data.

Previsão horária em Aba

Hoje, 26 Setembro, Sábado

Tempo Temperatura Precipitação Vento Pressão Humidade
00:00 +26°C° 0.5 mm 1 m/s 754 mmHg 94%
01:00 +25°C° 0.3 mm 1 m/s 753 mmHg 95%
02:00 +25°C° 0.3 mm 1 m/s 753 mmHg 95%
03:00 +25°C° 0.3 mm 1 m/s 753 mmHg 96%
04:00 +25°C° 0.5 mm 1 m/s 753 mmHg 95%
05:00 +25°C° 0.5 mm 1 m/s 753 mmHg 95%
06:00 +25°C° 0.5 mm 1 m/s 754 mmHg 95%
07:00 +26°C° 1.4 mm 2 m/s 754 mmHg 91%
08:00 +27°C° 1.4 mm 2 m/s 754 mmHg 88%
09:00 +27°C° 1.4 mm 3 m/s 754 mmHg 85%
10:00 +27°C° 1.2 mm 3 m/s 754 mmHg 85%
11:00 +27°C° 1.2 mm 3 m/s 753 mmHg 85%
12:00 +27°C° 1.2 mm 3 m/s 753 mmHg 85%
13:00 +27°C° 0.5 mm 3 m/s 752 mmHg 86%
14:00 +27°C° 0.5 mm 3 m/s 752 mmHg 86%
15:00 +26°C° 0.5 mm 3 m/s 751 mmHg 87%
16:00 +26°C° 0.3 mm 3 m/s 752 mmHg 89%
17:00 +26°C° 0.3 mm 2 m/s 752 mmHg 91%
18:00 +25°C° 0.3 mm 2 m/s 752 mmHg 94%
19:00 +25°C° 0.1 mm 2 m/s 753 mmHg 94%
20:00 +25°C° 0.1 mm 2 m/s 753 mmHg 94%
21:00 +25°C° 0.1 mm 1 m/s 754 mmHg 94%
22:00 +25°C° 0 mm 1 m/s 753 mmHg 95%
23:00 +25°C° 0 mm 1 m/s 753 mmHg 95%

Amanhã, 27 Setembro, Domingo

Tempo Temperatura Precipitação Vento Pressão Humidade
00:00 +25°C° 0 mm 1 m/s 753 mmHg 96%
01:00 +25°C° 0.3 mm 1 m/s 752 mmHg 95%
02:00 +23°C° 0.3 mm 0 m/s 752 mmHg 95%
03:00 +23°C° 0.3 mm 0 m/s 752 mmHg 95%
04:00 +23°C° 1 mm 0 m/s 752 mmHg 94%
05:00 +23°C° 1 mm 0 m/s 752 mmHg 94%
06:00 +23°C° 1 mm 0 m/s 753 mmHg 93%
07:00 +26°C° 1.1 mm 1 m/s 753 mmHg 89%
08:00 +27°C° 1.1 mm 1 m/s 753 mmHg 85%
09:00 +28°C° 1.1 mm 1 m/s 754 mmHg 81%
10:00 +28°C° 1.8 mm 2 m/s 753 mmHg 80%
11:00 +29°C° 1.8 mm 2 m/s 753 mmHg 79%
12:00 +29°C° 1.8 mm 3 m/s 752 mmHg 78%
13:00 +29°C° 1.5 mm 3 m/s 752 mmHg 80%
14:00 +28°C° 1.5 mm 3 m/s 751 mmHg 82%
15:00 +28°C° 1.5 mm 3 m/s 751 mmHg 83%
16:00 +27°C° 0.2 mm 3 m/s 751 mmHg 86%
17:00 +26°C° 0.2 mm 3 m/s 752 mmHg 89%
18:00 +25°C° 0.2 mm 2 m/s 752 mmHg 92%
19:00 +25°C° 0 mm 2 m/s 752 mmHg 93%
20:00 +25°C° 0 mm 2 m/s 753 mmHg 93%
21:00 +25°C° 0 mm 1 m/s 753 mmHg 94%
22:00 +24°C° 0 mm 1 m/s 753 mmHg 94%
23:00 +24°C° 0 mm 1 m/s 753 mmHg 95%

Depois de amanhã, 28 Setembro, Segunda-feira

Tempo Temperatura Precipitação Vento Pressão Humidade
00:00 +24°C° 0 mm 1 m/s 753 mmHg 95%
01:00 +24°C° 0 mm 1 m/s 753 mmHg 95%
02:00 +24°C° 0 mm 1 m/s 753 mmHg 95%
03:00 +24°C° 0 mm 1 m/s 752 mmHg 95%
04:00 +24°C° 0 mm 1 m/s 753 mmHg 94%
05:00 +24°C° 0 mm 1 m/s 753 mmHg 94%
06:00 +25°C° 0 mm 1 m/s 753 mmHg 93%
07:00 +26°C° 0 mm 1 m/s 754 mmHg 88%
08:00 +27°C° 0 mm 2 m/s 754 mmHg 82%
09:00 +29°C° 0 mm 3 m/s 754 mmHg 77%
10:00 +29°C° 1.2 mm 2 m/s 754 mmHg 75%
11:00 +30°C° 1.2 mm 2 m/s 753 mmHg 72%
12:00 +31°C° 1.2 mm 2 m/s 753 mmHg 70%
13:00 +30°C° 2.5 mm 2 m/s 752 mmHg 74%
14:00 +29°C° 2.5 mm 3 m/s 752 mmHg 78%
15:00 +29°C° 2.5 mm 3 m/s 751 mmHg 82%
16:00 +28°C° 1 mm 3 m/s 751 mmHg 85%
17:00 +27°C° 1 mm 2 m/s 752 mmHg 88%
18:00 +26°C° 1 mm 2 m/s 752 mmHg 91%
19:00 +26°C° 0.1 mm 2 m/s 753 mmHg 91%
20:00 +26°C° 0.1 mm 2 m/s 753 mmHg 91%
21:00 +26°C° 0.1 mm 3 m/s 754 mmHg 92%
22:00 +25°C° 0.1 mm 2 m/s 754 mmHg 92%
23:00 +25°C° 0.1 mm 1 m/s 754 mmHg 93%

29 Setembro, Terça-feira

Tempo Temperatura Precipitação Vento Pressão Humidade
00:00 +25°C° 0.1 mm 1 m/s 754 mmHg 94%
01:00 +25°C° 0.3 mm 1 m/s 753 mmHg 94%
02:00 +25°C° 0.3 mm 1 m/s 753 mmHg 95%
03:00 +25°C° 0.3 mm 1 m/s 753 mmHg 95%
04:00 +25°C° 0 mm 1 m/s 753 mmHg 95%
05:00 +25°C° 0 mm 1 m/s 753 mmHg 94%
06:00 +25°C° 0 mm 1 m/s 754 mmHg 94%
07:00 +25°C° 0 mm 1 m/s 754 mmHg 92%
08:00 +26°C° 0 mm 1 m/s 754 mmHg 90%
09:00 +26°C° 0 mm 1 m/s 755 mmHg 88%
10:00 +27°C° 0.1 mm 1 m/s 754 mmHg 87%
11:00 +27°C° 0.1 mm 2 m/s 754 mmHg 85%
12:00 +28°C° 0.1 mm 2 m/s 753 mmHg 83%
13:00 +27°C° 0.1 mm 2 m/s 753 mmHg 84%
14:00 +27°C° 0.1 mm 2 m/s 752 mmHg 85%
15:00 +27°C° 0.1 mm 3 m/s 751 mmHg 85%
16:00 +26°C° 0 mm 2 m/s 752 mmHg 88%
17:00 +26°C° 0 mm 2 m/s 752 mmHg 90%
18:00 +25°C° 0 mm 1 m/s 753 mmHg 93%
19:00 +25°C° 0 mm 1 m/s 753 mmHg 93%
20:00 +25°C° 0 mm 1 m/s 754 mmHg 94%
21:00 +25°C° 0 mm 1 m/s 754 mmHg 95%
22:00 +25°C° 0.1 mm 1 m/s 754 mmHg 94%
23:00 +25°C° 0.1 mm 1 m/s 754 mmHg 94%

30 Setembro, Quarta-feira

Tempo Temperatura Precipitação Vento Pressão Humidade
00:00 +25°C° 0.1 mm 1 m/s 753 mmHg 93%
01:00 +25°C° 0.1 mm 1 m/s 753 mmHg 94%
02:00 +25°C° 0.1 mm 1 m/s 752 mmHg 94%
03:00 +25°C° 0.1 mm 1 m/s 752 mmHg 94%
04:00 +25°C° 0 mm 1 m/s 752 mmHg 93%
05:00 +25°C° 0 mm 1 m/s 753 mmHg 93%
06:00 +23°C° 0 mm 0 m/s 753 mmHg 92%
07:00 +26°C° 0.2 mm 1 m/s 753 mmHg 87%
08:00 +27°C° 0.2 mm 1 m/s 754 mmHg 82%
09:00 +28°C° 0.2 mm 2 m/s 754 mmHg 78%
10:00 +29°C° 1.9 mm 2 m/s 753 mmHg 77%
11:00 +29°C° 1.9 mm 3 m/s 753 mmHg 75%
12:00 +30°C° 1.9 mm 3 m/s 752 mmHg 74%
13:00 +29°C° 2.3 mm 3 m/s 752 mmHg 77%
14:00 +29°C° 2.3 mm 3 m/s 751 mmHg 79%
15:00 +28°C° 2.3 mm 3 m/s 751 mmHg 81%
16:00 +27°C° 1.6 mm 3 m/s 751 mmHg 84%
17:00 +27°C° 1.6 mm 2 m/s 752 mmHg 87%
18:00 +26°C° 1.6 mm 2 m/s 752 mmHg 91%
19:00 +26°C° 0.4 mm 2 m/s 753 mmHg 91%
20:00 +26°C° 0.4 mm 1 m/s 753 mmHg 91%
21:00 +25°C° 0.4 mm 1 m/s 754 mmHg 92%
22:00 +25°C° 0 mm 1 m/s 753 mmHg 92%
23:00 +25°C° 0 mm 1 m/s 753 mmHg 93%

1 Outubro, Quinta-feira

Tempo Temperatura Precipitação Vento Pressão Humidade
00:00 +25°C° 0 mm 1 m/s 753 mmHg 94%
01:00 +25°C° 0 mm 1 m/s 752 mmHg 94%
02:00 +25°C° 0 mm 1 m/s 752 mmHg 95%
03:00 +24°C° 0 mm 1 m/s 752 mmHg 95%
04:00 +25°C° 0 mm 1 m/s 752 mmHg 94%
05:00 +25°C° 0 mm 1 m/s 753 mmHg 94%
06:00 +23°C° 0 mm 0 m/s 753 mmHg 93%
07:00 +27°C° 0 mm 1 m/s 753 mmHg 85%
08:00 +28°C° 0 mm 1 m/s 754 mmHg 77%
09:00 +30°C° 0 mm 1 m/s 754 mmHg 70%
10:00 +31°C° 0.1 mm 1 m/s 753 mmHg 65%
11:00 +32°C° 0.1 mm 1 m/s 752 mmHg 60%
12:00 +33°C° 0.1 mm 1 m/s 752 mmHg 56%
13:00 +34°C° 0.7 mm 2 m/s 751 mmHg 59%
14:00 +32°C° 0.7 mm 2 m/s 750 mmHg 61%
15:00 +32°C° 0.7 mm 2 m/s 750 mmHg 64%
16:00 +30°C° 0.8 mm 2 m/s 750 mmHg 71%
17:00 +29°C° 0.8 mm 2 m/s 750 mmHg 78%
18:00 +27°C° 0.8 mm 2 m/s 751 mmHg 85%
19:00 +27°C° 0 mm 2 m/s 751 mmHg 87%
20:00 +26°C° 0 mm 2 m/s 752 mmHg 89%
21:00 +26°C° 0 mm 2 m/s 753 mmHg 91%
22:00 +26°C° 0.1 mm 2 m/s 753 mmHg 91%
23:00 +26°C° 0.1 mm 2 m/s 752 mmHg 91%
Mostrar mais